{"data":{"norad_id":47894,"intl_designator":"2021-021AL","name":"STARLINK-2354","alt_names":[],"object_type":"PAYLOAD","status":"ACTIVE","operator":null,"country":"US","launch_date":"2021-03-14","launch_site_code":"AFETR","launch_vehicle":null,"mission":null,"orbit_class":"UNKNOWN","rcs_meters":null,"size_class":null,"mass_kg":null,"dimensions":null,"purposes":["comms"],"wikipedia_slug":null,"has_3d_model":false,"image_url":null,"decayed_at":null,"tle_current":{"epoch":"2026-09-20T03:26:24.944928Z","epoch_age_seconds":59981,"freshness":"FRESH","line1":"1 47894U 21021AL  26263.14334427  .00040880  00000+0  96440-3 0  9990","line2":"2 47894  53.1483  78.6211 0003699 132.4068 227.7251 15.41508159306042","mean_motion":15.41508159,"eccentricity":0.0003699,"inclination_deg":53.1483,"raan_deg":78.6211,"arg_perigee_deg":132.4068,"mean_anomaly_deg":227.7251,"bstar":0.0009644,"rev_number":30604,"period_min":93.41500994287,"perigee_km":439.13487666585,"apogee_km":444.18016065075,"semimajor_km":6819.7945186583,"source":"CELESTRAK","updated_at":"2026-09-20T09:00:38.756238Z"}}}